Location: Buckland
(65.9785°N, 161.1281°W)
Time: 21:50:29
(UTC+00:00)

SPROUT - Pass Details

Date: 22 January 2021
Orbit: 597 x 610 km, 97.9° (Epoch: 07 March)

Event Time Altitude Azimuth Distance (km) Brightness Sun altitude
Exits shadow 03:03:10 - 21° (NNE) 2,519 ? -7.2°
Reaches altitude 10° 03:04:50 10° 8° (N) 1,980 ? -7.4°
Maximum altitude 03:07:50 19° 324° (NW) 1,487 ? -7.6°
Drops below altitude 10° 03:10:49 10° 280° (W) 1,978 ? -7.9°
Sets 03:13:30 0° 263° (W) 2,881 ? -8.1°
